FW1436 Weather Reports


Display with metric or nautical units.
time (UTC)temp
F
wind
direction
speed
MPH
gust
MPH
rain 1hr
in
rain 24hr
in
rain mn
in
humidity
%
barometer
mb
20260904090017 82 101 0.0 3.0 0.00 0.00 0.00 34 1018.3
20260904084516 81 58 0.0 0.0 0.00 0.00 0.00 37 1018.2
20260904083013 80 103 0.0 1.0 0.00 0.00 0.00 37 1018.2
20260904081508 78 123 0.0 1.0 0.00 0.00 0.00 38 1017.9
20260904080006 76 214 0.0 1.0 0.00 0.00 0.00 43 1018.0
20260904074505 73 229 0.0 0.0 0.00 0.00 0.00 49 1018.1
20260904073005 71 229 0.0 0.0 0.00 0.00 0.00 50 1018.1
20260904071504 71 229 0.0 0.0 0.00 0.00 0.00 46 1018.1
20260904064500 67 229 0.0 0.0 0.00 0.00 0.00 50 1017.7
20260904063105 0 0.0 0.0 0.00 0.00 0.00 1017.7
20260904061553 0 0.0 0.0 0.00 0.00 0.00 1017.6
20260904060048 0 0.0 0.0 0.00 0.00 0.00 1017.2
20260904054545 0 0.0 0.0 0.00 0.00 0.00 1017.2
20260904053041 0 0.0 0.0 0.00 0.00 0.00 1017.2
20260904051555 0 0.0 0.0 0.00 0.00 0.00 1017.1
20260904050031 0 232 0.0 0.0 0.00 0.00 0.00 1017.2
20260904044528 66 229 0.0 0.0 0.00 0.00 0.00 45 1017.2
20260904043027 66 229 0.0 0.0 0.00 0.00 0.00 46 1017.2
20260904041523 68 229 0.0 0.0 0.00 0.00 0.00 44 1017.2
20260904040028 68 229 0.0 3.0 0.00 0.00 0.00 42 1017.3
20260904034520 69 219 0.0 0.0 0.00 0.00 0.00 43 1017.2
20260904033018 69 219 0.0 1.0 0.00 0.00 0.00 41 1017.3
20260904031516 70 219 0.0 0.0 0.00 0.00 0.00 37 1017.5
20260904030016 69 232 1.0 1.0 0.00 0.00 0.00 39 1017.4
20260904024515 68 212 0.0 0.0 0.00 0.00 0.00 45 1017.4
20260904023011 70 213 0.0 0.0 0.00 0.00 0.00 41 1017.2
20260904021510 70 146 0.0 0.0 0.00 0.00 0.00 39 1017.3
20260904020006 70 146 0.0 0.0 0.00 0.00 0.00 42 1017.5
20260904014505 70 146 0.0 0.0 0.00 0.00 0.00 42 1017.6
20260904013006 70 146 0.0 0.0 0.00 0.00 0.00 42 1017.8
20260904011501 71 147 0.0 0.0 0.00 0.00 0.00 42 1017.8
20260904010115 71 147 0.0 0.0 0.00 0.00 0.00 39 1018.0
20260904004557 72 115 0.0 1.0 0.00 0.00 0.00 37 1018.1
20260904003054 73 114 0.0 0.0 0.00 0.00 0.00 40 1018.2
20260904001552 74 227 0.0 0.0 0.00 0.00 0.00 38 1018.0
20260904000055 74 227 0.0 1.0 0.00 0.00 0.00 39 1018.1
20260903234547 75 227 0.0 0.0 0.00 0.00 0.00 36 1018.1
20260903233046 75 217 0.0 0.0 0.00 0.00 0.00 35 1017.9
20260903231543 76 221 0.0 2.0 0.00 0.00 0.00 35 1017.9
20260903230041 75 219 0.0 0.0 0.00 0.00 0.00 39 1017.8
20260903224539 75 217 0.0 0.0 0.00 0.00 0.00 37 1017.7
20260903223039 76 217 0.0 1.0 0.00 0.00 0.00 37 1017.6
20260903221535 76 222 0.0 0.0 0.00 0.00 0.00 35 1017.6
20260903220031 78 223 0.0 1.0 0.00 0.00 0.00 32 1017.8
20260903214530 79 223 0.0 1.0 0.00 0.00 0.00 30 1017.6
20260903213029 79 231 0.0 1.0 0.00 0.00 0.00 31 1017.6
20260903211530 79 250 0.0 2.0 0.00 0.00 0.00 29 1017.6
20260903210029 81 172 0.0 0.0 0.00 0.00 0.00 28 1017.5
20260903204531 83 151 0.0 0.0 0.00 0.00 0.00 27 1017.4
20260903203127 84 152 0.0 0.0 0.00 0.00 0.00 27 1017.3
20260903201526 85 231 0.0 2.0 0.00 0.00 0.00 26 1017.1
20260903200026 86 98 0.0 1.0 0.00 0.00 0.00 24 1016.9
20260903194525 87 82 0.0 0.0 0.00 0.00 0.00 23 1016.8
20260903193024 88 73 0.0 1.0 0.00 0.00 0.00 23 1016.6
20260903191524 89 87 0.0 3.0 0.00 0.00 0.00 22 1016.5
20260903190023 91 89 1.0 2.0 0.00 0.00 0.00 20 1016.2
20260903184522 92 21 0.0 5.0 0.00 0.00 0.00 20 1016.1
20260903183022 94 321 2.0 6.0 0.00 0.00 0.00 19 1016.0
20260903181521 96 357 1.0 8.0 0.00 0.00 0.00 19 1015.9
20260903180030 97 331 2.0 11.0 0.00 0.00 0.00 18 1015.9
20260903174521 98 100 1.0 5.0 0.00 0.00 0.00 20 1015.5
20260903173018 98 153 1.0 6.0 0.00 0.00 0.00 20 1015.6
20260903171518 99 244 1.0 7.0 0.00 0.00 0.00 20 1015.7
20260903170020 99 336 1.0 5.0 0.00 0.00 0.00 19 1015.8
20260903164515 99 95 3.0 10.0 0.00 0.00 0.00 19 1015.7
20260903163013 99 112 3.0 8.0 0.00 0.00 0.00 18 1015.7
20260903161513 99 250 3.0 6.0 0.00 0.00 0.00 19 1015.6
20260903160032 100 253 3.0 10.0 0.00 0.00 0.00 18 1015.7
20260903154517 100 288 3.0 9.0 0.00 0.00 0.00 18 1015.7
20260903153010 100 286 2.0 10.0 0.00 0.00 0.00 18 1015.8
20260903151508 99 231 1.0 8.0 0.00 0.00 0.00 19 1015.8
20260903150018 99 253 2.0 9.0 0.00 0.00 0.00 19 1016.0
20260903144510 99 296 5.0 9.0 0.00 0.00 0.00 18 1016.3
20260903143011 99 257 2.0 8.0 0.00 0.00 0.00 19 1016.3
20260903141501 98 283 2.0 8.0 0.00 0.00 0.00 20 1016.4
20260903140110 97 281 2.0 10.0 0.00 0.00 0.00 20 1016.5
20260903134559 97 290 3.0 14.0 0.00 0.00 0.00 21 1016.9
20260903133101 97 307 4.0 9.0 0.00 0.00 0.00 20 1016.9
20260903131553 97 242 4.0 12.0 0.00 0.00 0.00 21 1017.1
20260903130051 96 271 4.0 9.0 0.00 0.00 0.00 21 1017.2
20260903124553 96 146 2.0 12.0 0.00 0.00 0.00 22 1017.3
20260903123048 95 314 3.0 11.0 0.00 0.00 0.00 22 1017.4
20260903121548 95 289 4.0 11.0 0.00 0.00 0.00 24 1017.5
20260903120059 94 199 3.0 9.0 0.00 0.00 0.00 23 1017.7
20260903114543 94 152 2.0 6.0 0.00 0.00 0.00 23 1017.8
20260903113041 93 214 1.0 7.0 0.00 0.00 0.00 26 1018.1
20260903111539 92 306 0.0 5.0 0.00 0.00 0.00 29 1018.2
20260903110034 91 237 0.0 7.0 0.00 0.00 0.00 31 1018.3
20260903104531 89 109 1.0 5.0 0.00 0.00 0.00 35 1018.6
20260903103028 87 117 2.0 5.0 0.00 0.00 0.00 37 1018.7
20260903101531 85 237 1.0 6.0 0.00 0.00 0.00 39 1018.9
20260903100022 84 113 1.0 6.0 0.00 0.00 0.00 40 1019.0
20260903094520 83 74 4.0 6.0 0.00 0.00 0.00 41 1019.0
20260903093021 83 143 0.0 5.0 0.00 0.00 0.00 42 1019.1
20260903091517 83 151 1.0 4.0 0.00 0.00 0.00 42 1019.2